{"data":{"norad_id":49080,"epoch":"2026-09-20T00:32:44.499264Z","epoch_age_seconds":63115,"freshness":"FRESH","line1":"1 49080U 21075F   26263.02273726  .00000029  00000+0  40752-4 0  9996","line2":"2 49080  87.9206 347.0298 0001376  97.2528 262.8759 13.17650565246109","mean_motion":13.17650565,"eccentricity":0.0001376,"inclination_deg":87.9206,"raan_deg":347.0298,"arg_perigee_deg":97.2528,"mean_anomaly_deg":262.8759,"bstar":4.0752e-5,"rev_number":24610,"period_min":109.28542348403,"perigee_km":1192.6653785995,"apogee_km":1194.749150141,"semimajor_km":7571.8442643702,"source":"CELESTRAK","updated_at":"2026-09-20T09:00:44.631717Z"}}